TimeMDT,TemperatureF,Dew PointF,Humidity,Sea Level PressureIn,VisibilityMPH,Wind Direction,Wind SpeedMPH,Gust SpeedMPH,PrecipitationIn,Events,Conditions,WindDirDegrees,DateUTC
12:56 AM,25.0,21.0,85,30.41,10.0,WNW,3.5,-,N/A,,Clear,290,2012-10-05 06:56:00
1:56 AM,25.0,21.9,88,30.41,10.0,WNW,8.1,-,N/A,,Partly Cloudy,300,2012-10-05 07:56:00
2:56 AM,24.1,21.0,88,30.40,10.0,WNW,6.9,-,N/A,,Clear,300,2012-10-05 08:56:00
3:56 AM,23.0,19.9,88,30.40,10.0,NW,5.8,-,N/A,,Clear,320,2012-10-05 09:56:00
4:56 AM,24.1,21.0,88,30.40,10.0,NW,4.6,-,N/A,,Clear,320,2012-10-05 10:56:00
5:56 AM,25.0,21.0,85,30.40,10.0,NNW,6.9,-,N/A,,Clear,340,2012-10-05 11:56:00
6:56 AM,25.0,21.0,85,30.42,10.0,NNW,5.8,-,N/A,,Clear,340,2012-10-05 12:56:00
7:56 AM,25.0,21.0,85,30.44,10.0,West,4.6,-,N/A,,Clear,280,2012-10-05 13:56:00
8:56 AM,28.9,25.0,85,30.45,10.0,NW,9.2,-,N/A,,Clear,320,2012-10-05 14:56:00
9:56 AM,32.0,21.9,66,30.45,10.0,NNW,12.7,-,N/A,,Clear,340,2012-10-05 15:56:00
10:31 AM,33.8,21.2,60,30.37,10.0,NNW,11.5,19.6,N/A,,Mostly Cloudy,340,2012-10-05 16:31:00
10:56 AM,35.1,23.0,61,30.45,10.0,NNW,13.8,-,N/A,,Scattered Clouds,330,2012-10-05 16:56:00
11:34 AM,35.6,21.2,56,30.36,10.0,NNW,18.4,24.2,N/A,,Mostly Cloudy,330,2012-10-05 17:34:00
11:42 AM,35.6,21.2,56,30.36,10.0,NNW,19.6,24.2,N/A,,Mostly Cloudy,330,2012-10-05 17:42:00
11:56 AM,36.0,21.9,57,30.45,10.0,NNW,16.1,26.5,N/A,,Mostly Cloudy,330,2012-10-05 17:56:00
12:56 PM,37.9,21.9,53,30.43,10.0,NNW,20.7,-,N/A,,Mostly Cloudy,330,2012-10-05 18:56:00
1:56 PM,39.0,21.0,49,30.42,10.0,NW,12.7,23.0,N/A,,Partly Cloudy,320,2012-10-05 19:56:00
2:56 PM,39.0,19.9,46,30.41,10.0,NW,10.4,21.9,N/A,,Partly Cloudy,320,2012-10-05 20:56:00
3:56 PM,41.0,19.9,43,30.40,10.0,NW,16.1,-,N/A,,Scattered Clouds,320,2012-10-05 21:56:00
4:56 PM,39.0,18.0,43,30.40,10.0,NW,12.7,-,N/A,,Partly Cloudy,320,2012-10-05 22:56:00
5:56 PM,37.0,19.0,48,30.42,10.0,North,10.4,-,N/A,,Clear,350,2012-10-05 23:56:00
6:56 PM,32.0,19.0,59,30.44,10.0,NNW,6.9,-,N/A,,Clear,340,2012-10-06 00:56:00
7:56 PM,28.9,19.0,67,30.46,10.0,North,4.6,-,N/A,,Clear,350,2012-10-06 01:56:00
8:56 PM,28.0,18.0,66,30.46,10.0,North,5.8,-,N/A,,Clear,350,2012-10-06 02:56:00
9:56 PM,21.9,17.1,82,30.47,10.0,WNW,5.8,-,N/A,,Clear,290,2012-10-06 03:56:00
10:56 PM,21.9,17.1,82,30.46,10.0,WNW,6.9,-,N/A,,Clear,300,2012-10-06 04:56:00
11:56 PM,21.9,17.1,82,30.46,10.0,NW,6.9,-,N/A,,Clear,320,2012-10-06 05:56:00